DW0348 Weather Reports


time (UTC)temp
F
wind
direction
speed
knots
gust
knots
rain 1hr
in
rain 24hr
in
rain mn
in
humidity
%
barometer
mb
20211025031420 40 270 0.0 0.0 0.00 0.00 0.00 86 1018.5
20211025030917 40 270 0.0 0.0 0.00 0.00 0.00 86 1018.3
20211025030412 40 270 0.0 0.0 0.00 0.00 0.00 86 1018.3
20211025025910 40 270 0.0 0.0 0.00 0.00 0.00 86 1018.3
20211025025406 40 270 0.0 0.0 0.00 0.00 0.00 86 1018.3
20211025024900 40 270 0.0 0.0 0.00 0.00 0.00 86 1018.3
20211025024353 40 270 0.0 0.0 0.00 0.00 0.00 85 1018.3
20211025023843 40 270 0.0 0.0 0.00 0.00 0.00 85 1018.3
20211025023334 40 270 0.0 0.0 0.00 0.00 0.00 84 1018.5
20211025022834 41 270 0.0 0.0 0.00 0.00 0.00 84 1018.6
20211025022326 41 270 0.0 0.0 0.00 0.00 0.00 83 1018.5
20211025021815 41 270 0.0 0.0 0.00 0.00 0.00 83 1018.6
20211025021305 41 270 0.0 0.0 0.00 0.00 0.00 83 1018.6
20211025020756 41 270 0.0 0.0 0.00 0.00 0.00 82 1018.6
20211025020246 41 270 0.0 0.0 0.00 0.00 0.00 82 1018.6
20211025015734 42 270 0.0 0.0 0.00 0.00 0.00 82 1018.5
20211025015233 41 270 0.0 0.0 0.00 0.00 0.00 81 1018.6
20211025014727 42 270 0.0 0.0 0.00 0.00 0.00 81 1018.7
20211025014226 42 270 0.0 0.0 0.00 0.00 0.00 81 1018.6
20211025013725 42 270 0.0 0.0 0.00 0.00 0.00 80 1018.5
20211025013218 42 270 0.0 0.0 0.00 0.00 0.00 79 1018.5
20211025012711 43 270 0.0 0.0 0.00 0.00 0.00 79 1018.5
20211025012207 43 270 0.0 0.0 0.00 0.00 0.00 78 1018.3
20211025011644 43 270 0.0 0.0 0.00 0.00 0.00 78 1018.3
20211025011127 43 270 0.0 0.0 0.00 0.00 0.00 78 1018.2
20211025010620 43 270 0.0 0.0 0.00 0.00 0.00 78 1018.2
20211025010108 44 270 0.0 0.0 0.00 0.00 0.00 77 1018.3
20211025005559 44 270 0.0 0.0 0.00 0.00 0.00 77 1018.3
20211025005049 44 270 0.0 0.0 0.00 0.00 0.00 78 1018.5
20211025004535 43 270 0.0 0.0 0.00 0.00 0.00 78 1018.3
20211025004036 43 270 0.0 0.0 0.00 0.00 0.00 78 1018.3
20211025003517 44 270 0.0 0.0 0.00 0.00 0.00 78 1018.3
20211025003000 44 270 0.0 0.0 0.00 0.00 0.00 77 1018.3
20211025002447 44 270 0.0 0.0 0.00 0.00 0.00 78 1018.2
20211025001937 44 270 0.0 0.0 0.00 0.00 0.00 77 1018.2
20211025001434 44 270 0.0 0.0 0.00 0.00 0.00 77 1018.2
20211025000927 44 270 0.0 0.0 0.00 0.00 0.00 77 1018.2
20211025000420 44 270 0.0 0.0 0.00 0.00 0.00 77 1018.3
20211024235905 45 270 0.0 0.0 0.00 0.00 0.00 77 1018.5
20211024235354 45 270 0.0 0.0 0.00 0.00 0.00 77 1018.5
20211024234849 45 270 0.0 0.0 0.00 0.00 0.00 78 1018.5
20211024234348 45 270 0.0 0.0 0.00 0.00 0.00 78 1018.5
20211024233835 45 270 0.0 0.0 0.00 0.00 0.00 78 1018.5
20211024233330 45 270 0.0 0.0 0.00 0.00 0.00 77 1018.5
20211024232827 46 270 0.0 0.0 0.00 0.00 0.00 77 1018.5
20211024232313 46 270 0.0 0.0 0.00 0.00 0.00 76 1018.3
20211024231813 46 270 0.0 0.0 0.00 0.00 0.00 76 1018.3
20211024231309 46 270 0.0 0.0 0.00 0.00 0.00 75 1018.3
20211024230809 47 270 0.0 0.0 0.00 0.00 0.00 74 1018.2
20211024230247 47 270 0.0 0.0 0.00 0.00 0.00 74 1018.2
20211024225743 48 270 0.0 0.0 0.00 0.00 0.00 75 1018.2
20211024225237 48 270 0.0 0.0 0.00 0.00 0.00 75 1018.2
20211024224723 48 270 0.0 0.0 0.00 0.00 0.00 73 1018.2
20211024224213 48 270 0.0 0.0 0.00 0.00 0.00 71 1018.2
20211024223702 49 270 0.0 0.0 0.00 0.00 0.00 68 1018.2
20211024223217 49 270 0.0 0.0 0.00 0.00 0.00 67 1018.2
20211024222643 50 270 0.0 0.0 0.00 0.00 0.00 65 1018.2
20211024222129 50 270 0.0 0.0 0.00 0.00 0.00 65 1018.2
20211024221627 51 270 0.0 0.0 0.00 0.00 0.00 63 1018.1
20211024221122 51 270 0.0 0.0 0.00 0.00 0.00 63 1018.1
20211024220618 51 270 0.0 0.0 0.00 0.00 0.00 63 1018.0
20211024220114 52 270 0.0 0.0 0.00 0.00 0.00 62 1018.1
20211024215613 52 270 0.0 0.0 0.00 0.00 0.00 61 1018.1
20211024215108 52 270 0.0 0.0 0.00 0.00 0.00 60 1017.9
20211024214617 52 270 0.0 0.0 0.00 0.00 0.00 61 1017.9
20211024214100 53 270 0.0 0.0 0.00 0.00 0.00 59 1018.0
20211024213556 53 270 0.0 0.0 0.00 0.00 0.00 58 1018.0
20211024213052 53 270 0.0 0.0 0.00 0.00 0.00 57 1018.0
20211024212554 53 270 0.0 0.0 0.00 0.00 0.00 57 1018.1
20211024212045 53 270 0.0 0.0 0.00 0.00 0.00 57 1018.0
20211024211544 53 270 0.0 0.0 0.00 0.00 0.00 57 1018.0
20211024211035 54 270 0.0 0.0 0.00 0.00 0.00 59 1018.0
20211024210534 54 270 0.0 0.0 0.00 0.00 0.00 58 1018.0
20211024210027 54 270 0.0 0.0 0.00 0.00 0.00 57 1018.0
20211024205523 54 270 0.0 0.0 0.00 0.00 0.00 54 1017.9
20211024205022 55 270 0.0 0.0 0.00 0.00 0.00 55 1017.9
20211024204511 55 270 0.0 0.0 0.00 0.00 0.00 55 1017.9
20211024204000 55 270 0.0 0.0 0.00 0.00 0.00 53 1017.9
20211024203448 55 270 0.0 0.0 0.00 0.00 0.00 53 1018.0
20211024202942 55 270 0.0 0.0 0.00 0.00 0.00 54 1017.9
20211024202439 54 270 0.0 0.0 0.00 0.00 0.00 53 1017.8
20211024201933 55 270 0.0 0.0 0.00 0.00 0.00 53 1017.8
20211024201434 54 270 0.0 0.0 0.00 0.00 0.00 54 1017.9
20211024200905 55 270 0.0 0.0 0.00 0.00 0.00 54 1017.9
20211024200405 54 270 0.0 0.0 0.00 0.00 0.00 54 1017.9
20211024195841 54 270 0.0 0.0 0.00 0.00 0.00 54 1017.9
20211024195321 54 270 0.0 2.6 0.00 0.00 0.00 53 1017.9
20211024194814 54 270 0.0 2.6 0.00 0.00 0.00 53 1017.9
20211024194305 54 205 0.0 1.7 0.00 0.00 0.00 53 1017.7
20211024193755 54 205 0.0 3.5 0.00 0.00 0.00 54 1017.7
20211024193249 54 217 1.7 3.5 0.00 0.00 0.00 54 1017.7
20211024192750 54 226 0.0 3.5 0.00 0.00 0.00 54 1017.8
20211024192223 54 251 0.9 5.2 0.00 0.00 0.00 53 1017.8
20211024191658 54 216 1.7 5.2 0.00 0.00 0.00 53 1017.8
20211024191157 54 285 2.6 5.2 0.00 0.00 0.00 51 1017.9
20211024190657 54 299 2.6 8.7 0.00 0.00 0.00 53 1017.8
20211024190157 55 292 0.0 8.7 0.00 0.00 0.00 52 1017.9
20211024185653 55 334 2.6 7.8 0.00 0.00 0.00 51 1017.8
20211024185153 55 191 3.5 7.0 0.00 0.00 0.00 50 1017.8
20211024184652 55 205 1.7 8.7 0.00 0.00 0.00 47 1017.8
20211024184152 56 247 2.6 8.7 0.00 0.00 0.00 48 1017.8
20211024183704 56 215 3.5 8.7 0.00 0.00 0.00 48 1017.8
20211024183143 56 184 3.5 8.7 0.00 0.00 0.00 48 1017.8
20211024182643 56 285 3.5 8.7 0.00 0.00 0.00 50 1017.9
20211024182142 55 189 6.1 8.7 0.00 0.00 0.00 49 1017.9
20211024181641 55 217 4.3 6.1 0.00 0.00 0.00 51 1018.0
20211024181139 55 215 1.7 5.2 0.00 0.00 0.00 53 1018.0
20211024180633 54 277 1.7 7.0 0.00 0.00 0.00 54 1018.1
20211024180132 54 289 0.9 8.7 0.00 0.00 0.00 52 1018.1
20211024175630 54 291 2.6 8.7 0.00 0.00 0.00 50 1018.2
20211024175130 55 244 3.5 8.7 0.00 0.00 0.00 49 1018.3
20211024174630 55 278 1.7 9.6 0.00 0.00 0.00 53 1018.5
20211024174139 55 230 3.5 9.6 0.00 0.00 0.00 51 1018.6
20211024173627 55 217 5.2 9.6 0.00 0.00 0.00 50 1018.6
20211024173127 55 205 1.7 6.1 0.00 0.00 0.00 53 1018.5
20211024172626 55 177 2.6 6.1 0.00 0.00 0.00 54 1018.6
20211024172127 55 203 0.0 6.1 0.00 0.00 0.00 55 1018.5
20211024171625 54 285 0.9 6.1 0.00 0.00 0.00 56 1018.5
20211024171137 53 226 2.6 7.0 0.00 0.00 0.00 56 1018.7
20211024170623 53 275 3.5 7.0 0.00 0.00 0.00 54 1018.8
20211024170129 54 229 1.7 7.0 0.00 0.00 0.00 53 1018.9
20211024165623 53 264 1.7 7.0 0.00 0.00 0.00 56 1018.9
20211024165122 53 237 3.5 7.0 0.00 0.00 0.00 54 1018.9
20211024164621 53 171 5.2 7.0 0.00 0.00 0.00 54 1018.9
20211024164119 53 291 3.5 7.0 0.00 0.00 0.00 55 1019.0
20211024163619 53 225 2.6 7.8 0.00 0.00 0.00 55 1019.1
20211024163117 53 265 3.5 7.8 0.00 0.00 0.00 55 1019.2
20211024162616 53 213 4.3 7.8 0.00 0.00 0.00 55 1019.2
20211024162115 53 178 3.5 6.1 0.00 0.00 0.00 57 1019.2
20211024161615 52 237 3.5 6.1 0.00 0.00 0.00 55 1019.2
20211024161115 52 222 1.7 6.1 0.00 0.00 0.00 56 1019.3
20211024160613 52 296 3.5 6.1 0.00 0.00 0.00 55 1019.3
20211024160112 52 233 3.5 5.2 0.00 0.00 0.00 53 1019.4
20211024155611 52 286 2.6 5.2 0.00 0.00 0.00 59 1019.3
20211024155109 51 212 2.6 7.0 0.00 0.00 0.00 58 1019.4
20211024154608 51 282 3.5 7.0 0.00 0.00 0.00 58 1019.4
20211024154107 51 251 2.6 6.1 0.00 0.00 0.00 60 1019.4
20211024153607 51 187 1.7 7.0 0.00 0.00 0.00 63 1019.4
20211024153107 51 219 2.6 7.0 0.00 0.00 0.00 63 1019.5
20211024152607 50 250 3.5 7.0 0.00 0.00 0.00 63 1019.5
20211024152105 50 279 4.3 8.7 0.00 0.00 0.00 63 1019.5
20211024151602 50 223 2.6 8.7 0.00 0.00 0.00 63 1019.5
20211024151104 49 199 3.5 8.7 0.00 0.00 0.00 63 1019.6
20211024150612 49 246 2.6 7.0 0.00 0.00 0.00 63 1019.7
20211024150101 49 201 2.6 6.1 0.00 0.00 0.00 65 1019.5
20211024145559 48 154 3.5 7.8 0.00 0.00 0.00 64 1019.5
20211024145058 48 194 2.6 7.8 0.00 0.00 0.00 65 1019.5
20211024144556 48 219 5.2 7.8 0.00 0.00 0.00 64 1019.5
20211024144056 47 202 1.7 7.0 0.00 0.00 0.00 67 1019.5
20211024143556 47 253 2.6 7.0 0.00 0.00 0.00 69 1019.5
20211024143054 47 213 3.5 7.0 0.00 0.00 0.00 67 1019.5
20211024142555 46 174 3.5 7.0 0.00 0.00 0.00 69 1019.5
20211024142053 46 255 3.5 7.0 0.00 0.00 0.00 71 1019.4
20211024141553 45 244 3.5 7.8 0.00 0.00 0.00 72 1019.5
20211024141052 45 268 2.6 7.8 0.00 0.00 0.00 74 1019.5
20211024140550 44 272 4.3 7.0 0.00 0.00 0.00 75 1019.5
20211024140049 44 262 3.5 5.2 0.00 0.00 0.00 78 1019.5
20211024135549 43 236 1.7 5.2 0.00 0.00 0.00 80 1019.4
20211024135048 42 281 2.6 5.2 0.00 0.00 0.00 81 1019.5
20211024134548 42 257 1.7 5.2 0.00 0.00 0.00 84 1019.6
20211024134046 41 258 0.9 4.3 0.00 0.00 0.00 86 1019.5
20211024133547 40 223 0.9 4.3 0.00 0.00 0.00 89 1019.6
20211024133046 40 230 0.9 3.5 0.00 0.00 0.00 91 1019.6
20211024132535 39 258 1.7 3.5 0.00 0.00 0.00 92 1019.6
20211024132031 38 215 0.9 3.5 0.00 0.00 0.00 94 1019.7
20211024131529 38 323 0.0 0.0 0.00 0.00 0.00 95 1019.7
20211024131019 37 323 0.0 0.0 0.00 0.00 0.00 96 1019.6
20211024130528 36 323 0.0 0.0 0.00 0.00 0.00 96 1019.6
20211024125956 35 323 0.0 0.0 0.00 0.00 0.00 96 1019.6
20211024125448 35 323 0.0 0.0 0.00 0.00 0.00 96 1019.6
20211024124948 34 323 0.0 0.0 0.00 0.00 0.00 96 1019.6
20211024124441 33 323 0.0 0.0 0.00 0.00 0.00 96 1019.5
20211024123927 33 323 0.0 0.0 0.00 0.00 0.00 96 1019.6
20211024123414 32 323 0.0 0.0 0.00 0.00 0.00 96 1019.5
20211024122846 32 323 0.0 0.0 0.00 0.00 0.00 96 1019.5
20211024122330 32 323 0.0 0.0 0.00 0.00 0.00 96 1019.4
20211024121821 31 323 0.0 0.0 0.00 0.00 0.00 96 1019.3
20211024121313 31 323 0.0 0.0 0.00 0.00 0.00 96 1019.3
20211024120808 31 323 0.0 0.0 0.00 0.00 0.00 96 1019.2
20211024120251 31 323 0.0 0.0 0.00 0.00 0.00 96 1019.1
20211024115736 31 323 0.0 0.0 0.00 0.00 0.00 96 1019.0
20211024115227 31 323 0.0 0.0 0.00 0.00 0.00 96 1019.0
20211024114733 30 323 0.0 0.0 0.00 0.00 0.00 96 1018.8
20211024114215 30 323 0.0 0.0 0.00 0.00 0.00 96 1018.7
20211024113711 30 323 0.0 0.0 0.00 0.00 0.00 96 1018.8
20211024113202 30 323 0.0 0.0 0.00 0.00 0.00 96 1019.0
20211024112655 30 323 0.0 0.0 0.00 0.00 0.00 96 1018.9
20211024112146 30 323 0.0 0.0 0.00 0.00 0.00 96 1018.9
20211024111648 30 323 0.0 0.0 0.00 0.00 0.00 96 1018.9
20211024111139 30 323 0.0 0.0 0.00 0.00 0.00 96 1018.9
20211024110639 30 323 0.0 0.0 0.00 0.00 0.00 96 1018.9
20211024110132 30 323 0.0 0.0 0.00 0.00 0.00 96 1018.9
20211024105626 29 323 0.0 0.0 0.00 0.00 0.00 96 1019.0
20211024105122 29 323 0.0 0.0 0.00 0.00 0.00 96 1019.0
20211024104619 29 323 0.0 0.0 0.00 0.00 0.00 96 1019.0
20211024104116 29 323 0.0 0.0 0.00 0.00 0.00 96 1018.9
20211024103537 29 323 0.0 0.0 0.00 0.00 0.00 96 1018.9
20211024103022 29 323 0.0 0.0 0.00 0.00 0.00 96 1018.9
20211024102521 29 323 0.0 0.0 0.00 0.00 0.00 96 1018.9
20211024102011 29 323 0.0 0.0 0.00 0.00 0.00 96 1018.9
20211024101510 29 323 0.0 0.0 0.00 0.00 0.00 96 1018.9
20211024101008 29 323 0.0 0.0 0.00 0.00 0.00 96 1018.9
20211024100504 29 323 0.0 0.0 0.00 0.00 0.00 96 1018.8
20211024095959 30 323 0.0 0.0 0.00 0.00 0.00 96 1018.8
20211024095502 29 323 0.0 0.0 0.00 0.00 0.00 96 1018.8
20211024094951 29 323 0.0 0.0 0.00 0.00 0.00 96 1018.9
20211024094443 29 323 0.0 0.0 0.00 0.00 0.00 96 1018.9
20211024093941 29 323 0.0 0.0 0.00 0.00 0.00 96 1018.9
20211024093428 29 323 0.0 0.0 0.00 0.00 0.00 96 1018.8
20211024092925 29 323 0.0 0.0 0.00 0.00 0.00 96 1018.7
20211024092410 29 323 0.0 0.0 0.00 0.00 0.00 96 1018.5
20211024091849 29 323 0.0 0.0 0.00 0.00 0.00 96 1018.3
20211024091348 29 323 0.0 0.0 0.00 0.00 0.00 96 1018.2
20211024090836 29 323 0.0 0.0 0.00 0.00 0.00 96 1018.2
20211024090343 29 323 0.0 0.0 0.00 0.00 0.00 96 1018.2
20211024085829 29 323 0.0 0.0 0.00 0.00 0.00 96 1018.0
20211024085323 29 323 0.0 0.0 0.00 0.00 0.00 96 1017.9
20211024084820 29 323 0.0 0.0 0.00 0.00 0.00 96 1017.9
20211024084317 29 323 0.0 0.0 0.00 0.00 0.00 96 1018.0
20211024083811 29 323 0.0 0.0 0.00 0.00 0.00 96 1017.9
20211024083311 29 323 0.0 0.0 0.00 0.00 0.00 96 1017.9
20211024082803 29 323 0.0 0.0 0.00 0.00 0.00 96 1017.9
20211024082251 29 323 0.0 0.0 0.00 0.00 0.00 96 1017.9
20211024081742 29 323 0.0 0.0 0.00 0.00 0.00 96 1017.9
20211024081230 30 323 0.0 0.0 0.00 0.00 0.00 96 1017.9
20211024080719 30 323 0.0 0.0 0.00 0.00 0.00 96 1017.9
20211024080215 30 323 0.0 0.0 0.00 0.00 0.00 96 1017.9
20211024075713 30 323 0.0 0.0 0.00 0.00 0.00 96 1017.9
20211024075202 30 323 0.0 0.0 0.00 0.00 0.00 96 1017.9
20211024074651 30 323 0.0 0.0 0.00 0.00 0.00 96 1017.9
20211024074144 30 323 0.0 0.0 0.00 0.00 0.00 96 1017.9
20211024073641 30 323 0.0 0.0 0.00 0.00 0.00 96 1017.9
20211024073112 30 323 0.0 0.0 0.00 0.00 0.00 96 1017.9
20211024072542 30 323 0.0 0.0 0.00 0.00 0.00 96 1017.9
20211024072036 30 323 0.0 0.0 0.00 0.00 0.00 96 1017.8
20211024071535 30 323 0.0 0.0 0.00 0.00 0.00 95 1017.8
20211024071022 30 323 0.0 0.0 0.00 0.00 0.00 95 1017.8
20211024070517 31 323 0.0 0.0 0.00 0.00 0.00 95 1017.7
20211024070005 30 323 0.0 0.0 0.00 0.00 0.00 95 1017.6
20211024065458 31 323 0.0 0.0 0.00 0.00 0.00 95 1017.5
20211024064944 31 323 0.0 0.0 0.00 0.00 0.00 95 1017.5
20211024064430 31 323 0.0 0.0 0.00 0.00 0.00 95 1017.5
20211024063928 31 323 0.0 0.0 0.00 0.00 0.00 95 1017.6
20211024063422 31 323 0.0 0.0 0.00 0.00 0.00 95 1017.5
20211024062916 31 323 0.0 0.0 0.00 0.00 0.00 95 1017.6
20211024062416 31 323 0.0 0.0 0.00 0.00 0.00 95 1017.5
20211024061909 31 323 0.0 0.0 0.00 0.00 0.00 95 1017.5
20211024061409 31 323 0.0 0.0 0.00 0.00 0.00 95 1017.4
20211024060903 31 323 0.0 0.0 0.00 0.00 0.00 95 1017.4
20211024060402 32 323 0.0 0.0 0.00 0.00 0.00 95 1017.4
20211024055858 32 323 0.0 0.0 0.00 0.00 0.00 95 1017.4
20211024055353 32 323 0.0 0.0 0.00 0.00 0.00 95 1017.2
20211024054854 32 323 0.0 0.0 0.00 0.00 0.00 95 1017.3
20211024054335 32 323 0.0 0.0 0.00 0.00 0.00 95 1017.3
20211024053836 32 323 0.0 0.0 0.00 0.00 0.00 95 1017.3
20211024053322 32 323 0.0 0.0 0.00 0.00 0.00 95 1017.2
20211024052816 32 323 0.0 0.0 0.00 0.00 0.00 95 1017.1
20211024052315 32 323 0.0 0.0 0.00 0.00 0.00 95 1017.2
20211024051804 32 323 0.0 0.0 0.00 0.00 0.00 95 1017.2
20211024051300 31 323 0.0 0.0 0.00 0.00 0.00 95 1017.1
20211024050756 31 323 0.0 0.0 0.00 0.00 0.00 95 1017.0
20211024050251 31 323 0.0 0.0 0.00 0.00 0.00 95 1016.8
20211024045751 31 323 0.0 0.0 0.00 0.00 0.00 95 1016.8
20211024045242 31 323 0.0 0.0 0.00 0.00 0.00 95 1016.8
20211024044742 31 323 0.0 0.0 0.00 0.00 0.00 95 1016.8
20211024044236 31 323 0.0 0.0 0.00 0.00 0.00 94 1016.7
20211024043734 32 323 0.0 0.0 0.00 0.00 0.00 94 1016.6
20211024043231 32 323 0.0 0.0 0.00 0.00 0.00 94 1016.6
20211024042741 32 323 0.0 0.0 0.00 0.00 0.00 94 1016.6
20211024042158 32 323 0.0 0.0 0.00 0.00 0.00 94 1016.6
20211024041658 32 323 0.0 0.0 0.00 0.00 0.00 94 1016.5
20211024041157 32 323 0.0 0.0 0.00 0.00 0.00 94 1016.5
20211024040653 32 323 0.0 0.0 0.00 0.00 0.00 94 1016.5
20211024040144 32 323 0.0 0.0 0.00 0.00 0.00 94 1016.5
20211024035629 32 323 0.0 0.0 0.00 0.00 0.00 94 1016.5
20211024035122 32 323 0.0 0.0 0.00 0.00 0.00 94 1016.5
20211024034617 33 323 0.0 0.0 0.00 0.00 0.00 93 1016.5
20211024034114 33 323 0.0 0.0 0.00 0.00 0.00 93 1016.4
20211024033602 33 323 0.0 0.0 0.00 0.00 0.00 93 1016.5
20211024033049 33 323 0.0 0.0 0.00 0.00 0.00 93 1016.4
20211024032544 33 323 0.0 0.0 0.00 0.00 0.00 93 1016.4
20211024032027 33 323 0.0 0.0 0.00 0.00 0.00 93 1016.4